[[{"header":{"parameterUnit":"m.s-1","parameterCategory":1,"la1":30.2992,"la2":30.254,"lo1":-89.0895,"lo2":-89.0443,"dy":0.0025,"dx":0.0025,"nx":19,"ny":19,"refTime":"2026-03-09T21:00:00:Z","depth":0,"parameterNumber":2,"parameterNumberName":"U-component_of_WINDS"},"data":[0,0,0,-2.2187,-2.2188,-2.2248,-2.2249,-2.2325,-2.2326,0,0,0,0,0,0,0,0,0,0,0,-2.2169,-2.217,-2.2187,-2.2188,-2.2248,-2.2249,-2.2325,-2.2326,0,0,0,0,0,0,0,0,0,0,0,-2.2169,-2.2169,-2.217,-2.2188,-2.2248,-2.2249,-2.2325,-2.2279,0,0,0,0,0,0,0,0,0,0,-2.2221,-2.2205,-2.2169,-2.217,-2.2189,-2.2248,-2.2249,-2.2277,-2.2282,-2.2298,0,-2.2312,0,-2.232,-2.2331,-2.2331,0,0,0,-2.2188,-2.2201,-2.2217,-2.217,-2.2189,-2.2248,-2.2221,-2.228,-2.2286,-2.2305,-2.2313,-2.2316,-2.2322,-2.2332,-2.2332,-2.2425,-2.2425,0,0,-2.2184,-2.218,-2.2213,-2.2221,-2.2212,-2.2219,-2.2223,-2.2284,-2.2292,-2.2314,-2.2318,-2.2323,-2.2332,-2.2333,-2.2425,-2.2425,0,0,0,-2.2175,-2.2177,-2.2192,-2.2218,-2.2228,-2.2221,-2.2225,-2.229,-2.2295,-2.2319,-2.2324,-2.2333,-2.2333,-2.2424,-2.2425,-2.2442,0,0,0,-2.2173,-2.2172,-2.2191,-2.2188,-2.2227,-2.226,-2.223,-2.2291,-2.2298,-2.2323,-2.2333,-2.2334,-2.2424,-2.2424,-2.244,-2.2449,0,0,0,-2.2165,-2.2171,-2.218,-2.2188,-2.2214,-2.2259,-2.2268,-2.2292,-2.2301,-2.2331,-2.2334,-2.2423,-2.2424,-2.2439,-2.2447,-2.2472,0,0,0,-2.2155,-2.2193,-2.218,-2.2226,-2.2213,-2.227,-2.2268,-2.231,-2.2338,-2.2333,-2.2424,-2.2425,-2.2438,-2.2446,-2.247,-2.249,-2.2499,0,0,-2.2201,-2.2199,-2.2226,-2.2216,-2.2274,-2.2261,-2.2321,-2.2351,-2.2359,-2.2402,-2.2405,-2.2441,-2.2447,-2.2472,-2.2551,-2.2557,0,0,0,-2.2239,-2.2258,-2.2275,-2.2302,-2.2327,-2.2349,-2.2371,-2.2383,-2.242,-2.238,-2.2457,-2.2461,-2.2476,-2.2485,-2.2491,-2.2503,-2.243,-2.2429,-2.2429,-2.2295,-2.2304,-2.2349,-2.2366,-2.2392,-2.2416,-2.2438,-2.2457,-2.2457,-2.2476,-2.2487,-2.2535,-2.2546,-2.255,-2.2563,-2.2501,-2.2501,-2.2501,-2.2501,-2.2362,-2.239,-2.2392,-2.2436,-2.2445,-2.2483,-2.2508,-2.2507,-2.2542,-2.2526,-2.2539,-2.2518,-2.2557,-2.2568,-2.2502,-2.2502,-2.2502,-2.2502,-2.2501,-2.2397,-2.2412,-2.2427,-2.2469,-2.25,-2.2516,-2.2551,-2.2558,-2.2565,-2.2578,-2.2591,-2.2591,-2.259,-2.2585,-2.2585,-2.2585,-2.2585,-2.2585,-2.2585,-2.2427,-2.2444,-2.2473,-2.2504,-2.2524,-2.255,-2.2576,-2.2595,-2.2618,-2.262,-2.262,-2.2617,-2.256,-2.2544,-2.2588,-2.2587,-2.2587,-2.2587,-2.2587,-2.2488,-2.2476,-2.252,-2.254,-2.2578,-2.2609,-2.2619,-2.2658,-2.2675,-2.2692,-2.2688,-2.2645,-2.2643,-2.2638,-2.2625,-2.2687,-2.2687,-2.2687,-2.2687,-2.2516,-2.2517,-2.2565,-2.2595,-2.2627,-2.2641,-2.2691,-2.2712,-2.2732,-2.2743,-2.2736,-2.272,-2.2716,-2.2716,-2.271,-2.2698,-2.2776,-2.2777,-2.2777,-2.2553,-2.2558,-2.2598,-2.2619,-2.2651,-2.2677,-2.2724,-2.2759,-2.278,-2.278,-2.2752,-2.2748,-2.2723,-2.2714,-2.2711,-2.2701,-2.2679,0,0]},{"header":{"parameterUnit":"m.s-1","parameterCategory":1,"la1":30.2992,"la2":30.254,"lo1":-89.0895,"lo2":-89.0443,"dy":0.0025,"dx":0.0025,"nx":19,"ny":19,"refTime":"2026-03-09T21:00:00:Z","depth":0,"parameterNumber":3,"parameterNumberName":"V-component_of_WINDS"},"data":[0,0,0,3.5755,3.5757,3.5866,3.5866,3.6014,3.6015,0,0,0,0,0,0,0,0,0,0,0,3.5725,3.5726,3.5755,3.5757,3.5866,3.5867,3.6014,3.6015,0,0,0,0,0,0,0,0,0,0,0,3.5725,3.5726,3.5727,3.5758,3.5866,3.5867,3.6013,3.5929,0,0,0,0,0,0,0,0,0,0,3.5822,3.5796,3.5726,3.5727,3.5758,3.5866,3.5867,3.5925,3.5934,3.5967,0,3.5996,0,3.6008,3.6025,3.6026,0,0,0,3.5756,3.5788,3.5815,3.5727,3.5759,3.5866,3.5817,3.593,3.5941,3.598,3.5998,3.6003,3.601,3.6026,3.6027,3.6223,3.6224,0,0,3.575,3.5746,3.5808,3.5822,3.5804,3.5813,3.582,3.5936,3.5956,3.5998,3.6006,3.6013,3.6027,3.6029,3.6222,3.6223,0,0,0,3.5734,3.5742,3.5766,3.5817,3.5835,3.5816,3.5824,3.5951,3.5959,3.6008,3.6014,3.6028,3.603,3.6221,3.6222,3.627,0,0,0,3.573,3.5733,3.5764,3.5763,3.5833,3.5894,3.5836,3.5951,3.5964,3.6014,3.6028,3.6032,3.6219,3.6221,3.6266,3.6294,0,0,0,3.5717,3.5731,3.5747,3.5762,3.5809,3.5892,3.5907,3.5954,3.5968,3.6026,3.6032,3.6219,3.6221,3.6263,3.6288,3.6348,0,0,0,3.5703,3.5786,3.5748,3.5844,3.5808,3.5919,3.5906,3.5989,3.6044,3.6029,3.622,3.6222,3.6262,3.6285,3.6344,3.64,3.6421,0,0,3.5806,3.5798,3.5855,3.5825,3.5942,3.5903,3.6029,3.6082,3.6091,3.6179,3.6184,3.6267,3.6288,3.6347,3.6537,3.6554,0,0,0,3.5887,3.5929,3.596,3.6013,3.6055,3.6097,3.6131,3.6152,3.6227,3.6134,3.6303,3.6315,3.635,3.6377,3.6392,3.6425,3.6233,3.6233,3.6232,3.603,3.6037,3.6134,3.6155,3.6206,3.6243,3.6287,3.6321,3.6312,3.6352,3.6379,3.6494,3.6525,3.6536,3.657,3.6406,3.6406,3.6406,3.6406,3.6186,3.6248,3.6236,3.6326,3.6334,3.641,3.645,3.6442,3.6517,3.6472,3.6504,3.6459,3.6554,3.6585,3.641,3.6409,3.6409,3.6408,3.6408,3.6283,3.6315,3.6338,3.6418,3.6479,3.6498,3.6571,3.6575,3.6579,3.661,3.6643,3.6642,3.6646,3.6624,3.6625,3.6625,3.6625,3.6626,3.6626,3.6377,3.6402,3.6463,3.6518,3.6555,3.6603,3.6643,3.668,3.6722,3.672,3.672,3.6711,3.656,3.6525,3.6632,3.6631,3.663,3.663,3.6629,3.654,3.6505,3.6598,3.6635,3.6703,3.6766,3.677,3.6846,3.6876,3.6914,3.6898,3.6784,3.6777,3.6766,3.6737,3.6892,3.6892,3.6892,3.6892,3.6626,3.6622,3.6722,3.6782,3.684,3.6854,3.6965,3.6998,3.7027,3.7048,3.7025,3.6985,3.6973,3.6974,3.6958,3.6932,3.7133,3.7133,3.7133,3.673,3.6732,3.6824,3.6851,3.6905,3.6953,3.7059,3.713,3.7155,3.7143,3.7065,3.7055,3.6992,3.697,3.6959,3.6934,3.6886,0,0]}]]